Weather History for West Yellowstone, MT

Change the Weather History Date:

Saturday, June 7, 2014

  Actual Average Record
Temperature  
Mean Temperature 46 °F -  
Max Temperature 64 °F 65 °F 75 °F (2013)
Min Temperature 28 °F 37 °F 28 °F (2014)
Degree Days  
Heating Degree Days 19    
Moisture  
Dew Point 32 °F    
Average Humidity 56    
Maximum Humidity 100    
Minimum Humidity 24    
Precipitation  
Precipitation 0.11 in - - ()
Sea Level Pressure  
Sea Level Pressure 30.11 in    
Wind  
Wind Speed 3 mph (NNE)    
Max Wind Speed 14 mph    
Max Gust Speed 18 mph    
Visibility 10 miles    
Events Rain    
Averages and records for this station are not official NWS values.
T = Trace of Precipitation, MM = Missing Value Source: NWS Daily Summary

Daily Weather History Graph

Daily Weather History Graph

Search for Another Location

Airport:

Trip Planner

Search our weather history database for the weather conditions in past years. The results will help you decide how hot, cold, wet, or windy it might be!

Date:

Astronomy

Jun. 07, 2014 Rise Set
Actual Time 5:39 AM MDT 9:07 PM MDT
Civil Twilight 5:03 AM MDT 9:44 PM MDT
Nautical Twilight 4:15 AM MDT 10:32 PM MDT
Astronomical Twilight 3:13 AM MDT 11:34 PM MDT
Moon 3:16 PM MDT (6/7) 2:17 AM MDT (6/7)
Length of Visible Light 16h 41m
Length of Day
15h 27m
Waxing Gibbous, 68% of the Moon is Illuminated
Jun 7
Waxing Gibbous
Jun 12
Full
Jun 19
Last Quarter
Jun 27
New
Jul 5
First Quarter

Hourly Weather History & Observations

Time (MDT) Temp. Windchill Dew Point Humidity Pressure Visibility Wind Dir Wind Speed Gust Speed Precip Events Conditions
12:10 AM 42.8 °F 41.1 °F 35.6 °F 76% 30.12 in 10.0 mi ENE 3.5 mph - N/A   Clear
12:30 AM 41.0 °F 38.0 °F 35.6 °F 81% 30.12 in 10.0 mi East 4.6 mph - N/A   Clear
12:50 AM 41.0 °F 39.0 °F 35.6 °F 81% 30.12 in 10.0 mi East 3.5 mph - N/A   Clear
1:10 AM 41.0 °F 37.1 °F 35.6 °F 81% 30.12 in 10.0 mi NNE 5.8 mph - N/A   Clear
1:30 AM 41.0 °F - 35.6 °F 81% 30.12 in 10.0 mi Calm Calm - N/A   Clear
1:50 AM 41.0 °F 38.0 °F 35.6 °F 81% 30.12 in 10.0 mi NE 4.6 mph - N/A   Clear
2:10 AM 37.4 °F - 33.8 °F 87% 30.13 in 10.0 mi Calm Calm - N/A   Clear
2:30 AM 35.6 °F - 33.8 °F 93% 30.13 in 10.0 mi Calm Calm - N/A   Clear
2:50 AM 35.6 °F - 32.0 °F 87% 30.13 in 10.0 mi Calm Calm - N/A   Clear
3:10 AM 32.0 °F - 32.0 °F 100% 30.14 in 10.0 mi Calm Calm - N/A   Clear
3:30 AM 32.0 °F - 32.0 °F 100% 30.14 in 10.0 mi Calm Calm - N/A   Clear
3:50 AM 32.0 °F - 30.2 °F 93% 30.14 in 10.0 mi Calm Calm - N/A   Clear
4:10 AM 30.2 °F - 30.2 °F 100% 30.14 in 10.0 mi Calm Calm - N/A   Clear
4:30 AM 28.4 °F - 28.4 °F 100% 30.14 in 10.0 mi Calm Calm - N/A   Clear
4:50 AM 28.4 °F - 28.4 °F 100% 30.14 in 10.0 mi Calm Calm - N/A   Clear
5:10 AM 28.4 °F - 28.4 °F 100% 30.14 in 10.0 mi Calm Calm - N/A   Clear
5:30 AM 28.4 °F 23.3 °F 26.6 °F 93% 30.15 in 10.0 mi SSW 4.6 mph - N/A   Clear
6:10 AM 28.4 °F - 28.4 °F 100% 30.15 in 10.0 mi Calm Calm - N/A   Clear
7:10 AM 35.6 °F - 32.0 °F 87% 30.15 in 10.0 mi Calm Calm - N/A   Clear
7:30 AM 39.2 °F - 35.6 °F 87% 30.15 in 10.0 mi Calm Calm - N/A   Clear
7:50 AM 41.0 °F - 35.6 °F 81% 30.15 in 10.0 mi Calm Calm - N/A   Clear
8:10 AM 42.8 °F - 35.6 °F 76% 30.15 in 10.0 mi Calm Calm - N/A   Clear
8:30 AM 44.6 °F 42.2 °F 35.6 °F 71% 30.15 in 10.0 mi NNE 4.6 mph - N/A   Clear
8:50 AM 46.4 °F 45.2 °F 37.4 °F 71% 30.15 in 10.0 mi NE 3.5 mph - N/A   Clear
9:10 AM 48.2 °F - 35.6 °F 62% 30.15 in 10.0 mi Calm Calm - N/A   Clear
9:30 AM 48.2 °F - 37.4 °F 66% 30.14 in 10.0 mi Calm Calm - N/A   Clear
9:50 AM 50.0 °F - 37.4 °F 62% 30.14 in 10.0 mi SSW 3.5 mph - N/A   Clear
10:10 AM 51.8 °F - 37.4 °F 58% 30.13 in 10.0 mi Calm Calm - N/A   Clear
10:30 AM 53.6 °F - 35.6 °F 51% 30.12 in 10.0 mi Calm Calm - N/A   Clear
10:50 AM 55.4 °F - 35.6 °F 47% 30.12 in 10.0 mi ENE 4.6 mph - N/A   Clear
11:10 AM 55.4 °F - 32.0 °F 41% 30.11 in 10.0 mi Calm Calm - N/A   Clear
11:30 AM 57.2 °F - 28.4 °F 33% 30.10 in 10.0 mi SSE 4.6 mph - N/A   Clear
11:50 AM 57.2 °F - 26.6 °F 31% 30.10 in 10.0 mi East 3.5 mph - N/A   Clear
12:10 PM 59.0 °F - 28.4 °F 31% 30.09 in 10.0 mi NNE 5.8 mph - N/A   Clear
12:30 PM 59.0 °F - 28.4 °F 31% 30.09 in 10.0 mi WSW 3.5 mph - N/A   Partly Cloudy
12:50 PM 62.6 °F - 28.4 °F 27% 30.09 in 10.0 mi NNW 4.6 mph - N/A   Mostly Cloudy
1:10 PM 62.6 °F - 26.6 °F 26% 30.08 in 10.0 mi North 9.2 mph - N/A   Scattered Clouds
1:30 PM 59.0 °F - 26.6 °F 29% 30.08 in 10.0 mi NNW 3.5 mph - N/A   Scattered Clouds
1:50 PM 60.8 °F - 24.8 °F 25% 30.08 in 10.0 mi ENE 3.5 mph - N/A   Mostly Cloudy
2:10 PM 59.0 °F - 26.6 °F 29% 30.08 in 10.0 mi SSW 3.5 mph - N/A   Mostly Cloudy
2:30 PM 62.6 °F - 26.6 °F 26% 30.08 in 10.0 mi ENE 4.6 mph - N/A   Overcast
2:50 PM 60.8 °F - 26.6 °F 27% 30.07 in 10.0 mi North 5.8 mph - N/A   Overcast
3:10 PM 60.8 °F - 28.4 °F 29% 30.07 in 10.0 mi NNE 4.6 mph 16.1 mph N/A   Overcast
3:30 PM 60.8 °F - 28.4 °F 29% 30.07 in 10.0 mi North 3.5 mph - N/A   Overcast
3:50 PM 64.4 °F - 28.4 °F 26% 30.06 in 10.0 mi West 6.9 mph - N/A   Overcast
4:10 PM 64.4 °F - 28.4 °F 26% 30.06 in 10.0 mi WSW 5.8 mph - N/A   Scattered Clouds
4:30 PM 62.6 °F - 28.4 °F 27% 30.06 in 10.0 mi NW 5.8 mph - N/A   Partly Cloudy
4:50 PM 62.6 °F - 28.4 °F 27% 30.06 in 10.0 mi NNW 4.6 mph - N/A   Mostly Cloudy
5:10 PM 64.4 °F - 26.6 °F 24% 30.05 in 10.0 mi WSW 8.1 mph 16.1 mph N/A   Mostly Cloudy
5:30 PM 64.4 °F - 26.6 °F 24% 30.06 in 10.0 mi Calm Calm - N/A   Partly Cloudy
5:50 PM 62.6 °F - 26.6 °F 26% 30.05 in 10.0 mi NNW 8.1 mph - N/A   Clear
6:10 PM 62.6 °F - 24.8 °F 24% 30.05 in 10.0 mi West 6.9 mph - N/A   Scattered Clouds
6:30 PM 62.6 °F - 26.6 °F 26% 30.05 in 10.0 mi West 4.6 mph - N/A   Mostly Cloudy
6:50 PM 62.6 °F - 26.6 °F 26% 30.05 in 10.0 mi West 4.6 mph - N/A   Partly Cloudy
7:10 PM 60.8 °F - 28.4 °F 29% 30.05 in 10.0 mi NE 6.9 mph - N/A   Mostly Cloudy
7:30 PM 59.0 °F - 32.0 °F 36% 30.06 in 10.0 mi NNE 8.1 mph - N/A   Overcast
7:50 PM 59.0 °F - 32.0 °F 36% 30.06 in 10.0 mi NE 8.1 mph - N/A   Overcast
8:10 PM 57.2 °F - 32.0 °F 38% 30.07 in 10.0 mi NE 13.8 mph - N/A   Overcast
8:30 PM 55.4 °F - 32.0 °F 41% 30.08 in 10.0 mi NNE 10.4 mph 17.3 mph N/A   Overcast
8:50 PM 55.4 °F - 32.0 °F 41% 30.09 in 10.0 mi NNE 11.5 mph 18.4 mph N/A   Overcast
9:10 PM 55.4 °F - 32.0 °F 41% 30.10 in 10.0 mi NE 9.2 mph 17.3 mph N/A   Overcast
9:30 PM 53.6 °F - 32.0 °F 44% 30.10 in 10.0 mi North 4.6 mph - N/A   Overcast
9:50 PM 53.6 °F - 32.0 °F 44% 30.11 in 10.0 mi North 4.6 mph - N/A   Overcast
10:10 PM 53.6 °F - 32.0 °F 44% 30.13 in 10.0 mi NNE 5.8 mph - N/A   Overcast
10:30 PM 51.8 °F - 32.0 °F 47% 30.14 in 9.0 mi NE 12.7 mph 18.4 mph N/A Rain Light Rain
10:50 PM 48.2 °F - 37.4 °F 66% 30.15 in 4.0 mi NNE 6.9 mph - 0.01 in Rain Light Rain
11:10 PM 46.4 °F - 39.2 °F 76% 30.16 in 5.0 mi Calm Calm - 0.02 in Rain Light Rain
11:30 PM 44.6 °F 43.1 °F 41.0 °F 87% 30.16 in 5.0 mi NNE 3.5 mph - 0.06 in Rain Light Rain
11:50 PM 44.6 °F 43.1 °F 41.0 °F 87% 30.16 in 5.0 mi North 3.5 mph - 0.10 in Rain Rain